Location: Unspecified
(43.4680°N, 87.1740°E)
Time: 21:09:48
(UTC+00:00)

CZ-2C R/B - Pass Details

Date: 17 April 2021
Orbit: 501 x 565 km, 97.7° (Epoch: 12 May)

Event Time Altitude Azimuth Distance (km) Brightness Sun altitude
Rises 21:46:07 0° 17° (NNE) 2,631 7.1 -17.0°
Reaches altitude 10° 21:48:14 10° 21° (NNE) 1,748 6.2 -16.6°
Maximum altitude 21:51:57 56° 101° (E) 626 3.3 -16.1°
Enters shadow 21:55:33 11° 179° (S) 1,708 5.0 -15.5°
